Regional Weather Roundup
Issued by NWS

Home | Current Version | Previous Version | Graphics & Text | Print | Product List | Glossary On
Versions: 1 2 3 4 5 6 7 8 9 10 11 12 13 14 15 16 17 18 19 20 21 22 23 24 25 26 27 28 29 30 31 32 33 34 35 36 37 38 39 40 41 42 43 44 45 46 47 48 49 50
000
ASUS43 KMPX 270601
RWRMN
WEATHER ROUNDUP FOR MINNESOTA
NATIONAL WEATHER SERVICE TWIN CITIES/CHANHASSEN MN
1200 AM CST THU NOV 27 2014


NOTE: "FAIR" INDICATES FEW OR NO CLOUDS BELOW 12,000 FEET WITH NO
SIGNIFICANT WEATHER AND/OR OBSTRUCTIONS TO VISIBILITY. N/A MEANS
CURRENT SKY AND/OR WEATHER CONDITIONS ARE NOT AVAILABLE.

MNZ060>063-068>070-270700-
   Twin Cities Metro

CITY           SKY/WX    TMP DP  RH WIND       PRES   REMARKS
TWIN CITIES    PTCLDY    11   0  61 NW12      30.40R WCI  -3
6HR MIN TEMP:  11; 6HR MAX TEMP:  23; 6HR PCP: TRACE;

ST PAUL        CLEAR     11   1  64 NW12      30.42R WCI  -3
CRYSTAL        CLEAR     11  -2  56 N9        30.40R WCI  -2
BLAINE         CLEAR     10   1  67 NW12      30.40R WCI  -4
LAKEVILLE      PTCLDY    10   5  79 NW10      30.38R WCI  -3
EDEN PRAIRIE   CLEAR     10  -3  55 NW14      30.39R WCI  -6
6HR MIN TEMP:  10; 6HR MAX TEMP:  23; 6HR PCP: TRACE;

SOUTH ST PAUL  CLEAR     14   3  61 N5        30.40R WCI   6
LAKE ELMO      FAIR      12   3  67 N7        30.39R WCI   2
$$
MNZ001>005-007-008-013>017-022>024-027-028-270700-
   Northwest Minnesota

CITY           SKY/WX    TMP DP  RH WIND       PRES   REMARKS
BEMIDJI        FAIR     -14 -18  81 NW7       30.44S WCI -30
HALLOCK        MOCLDY   -15 -18  84 CALM      30.55R
ROSEAU         PTCLDY    -9 -17  70 W3        30.51R
WARROAD        PTCLDY   -13 -18  77 W3        30.48S
THIEF RVR FALL PTCLDY    -9 -13  84 NW5       30.51R WCI -21
CROOKSTON      PTCLDY   -11 -17  77 NW3       30.57R
FOSSTON        PTCLDY   -17 -20  83 W3        30.49R
DETROIT LAKES  CLEAR     -8 -13  77 NW6       30.49R WCI -21
MOORHEAD       PTCLDY    -9 -11  92 NW5       30.56S WCI -21
PARK RAPIDS    CLEAR     -8 -13  78 NW5       30.44R WCI -19
MAHNOMEN       FAIR     -11 -15  80 NW3       30.49R
$$
MNZ006-009>011-018-025>026-270700-
   North Central Minnesota

CITY           SKY/WX    TMP DP  RH WIND       PRES   REMARKS
BAUDETTE       CLEAR     -9 -14  78 CALM      30.46S
FLAG ISLAND    PTCLDY   -11 -17  77 NW6       30.47R WCI -25
INTL FALLS     CLEAR    -10 -15  78 NW5       30.45R WCI -22
6HR MIN TEMP: -10; 6HR MAX TEMP:  -3;

WASKISH        CLEAR     -8 -11  84 CALM      30.46R
BIG FORK       CLEAR     -8 -13  77 NW3       30.43R
LONGVILLE      CLEAR     -6  -9  84 N3        30.43S
GRAND RAPIDS   CLEAR     -6  -9  84 NW9       30.40R WCI -22
CRANE LAKE     CLEAR     -6  -9  84 N3        30.45R
ORR            PTCLDY    -9 -15  77 NW5       30.38R WCI -21
COOK           CLEAR     -9 -13  84 NW3       30.40S
WALKER         FAIR      -8 -13  80 NW3       30.44R
$$
MNZ012-019>021-037-270700-
   Northeast Minnesota

CITY           SKY/WX    TMP DP  RH WIND       PRES   REMARKS
DULUTH         PTCLDY    -2  -8  76 NW15      30.33R WCI -22
6HR MIN TEMP:  -2; 6HR MAX TEMP:  11;

ELY            CLEAR     -8 -11  84 NW5       30.37R WCI -19
HIBBING        CLEAR     -5 -11  75 NW7       30.39R WCI -19
EVELETH        CLEAR     -2  -8  78 CALM      30.39R
DULUTH HARBOR  PTCLDY     5  -2  72 NW13      30.44S WCI -12
TWO HARBORS    CLEAR      1  -6  71 N5        30.35R WCI  -8
SILVER BAY     CLEAR      1  -6  71 NW9       30.33S WCI -14
GRAND MARAIS     N/A      0  -9  65 N16G37    30.34R WCI -20
G MARAIS ARPRT CLEAR     -8 -15  71 N14       30.24S WCI -28
$$
MNZ029>031-032-039>041-046>048-054>057-064-270700-
   West Central Minnesota

CITY           SKY/WX    TMP DP  RH WIND       PRES   REMARKS
FERGUS FALLS   PTCLDY    -8 -15  71 N9        30.55S WCI -25
WHEATON        PTCLDY    -8  -9  92 NW5       30.55S WCI -19
MORRIS         PTCLDY    -4  -9  77 N12       30.49R WCI -22
ALEXANDRIA     CLEAR     -3  -8  79 NW8       30.46R WCI -18
ELBOW LAKE     FAIR      -5  -9  84 N9        30.49R WCI -21
WADENA         CLEAR     -6  -9  84 NW7       30.45R WCI -20
GLENWOOD       CLEAR     -2  -8  78 NW10      30.46R WCI -19
APPLETON       CLEAR     -2  -8  78 NW13      30.52R WCI -21
BENSON         CLEAR     -4  -8  84 N9G16     30.49R WCI -20
ORTONVILLE     PTCLDY    -4  -9  77 N9        30.52R WCI -20
MADISON        CLEAR      1  -4  78 NW8       30.53R WCI -12
WILLMAR        FAIR       0  -8  71 NW9       30.47R WCI -16
$$
MNZ033>034-036-042>043-049>051-058-059-270700-
   Central Minnesota

CITY           SKY/WX    TMP DP  RH WIND       PRES   REMARKS
ST CLOUD       CLEAR      4  -5  66 N9        30.44R WCI -10
6HR MIN TEMP:   4; 6HR MAX TEMP:  19;

SAUK CENTRE    FAIR      -2  -8  76 NW10      30.46R WCI -19
PAYNESVILLE    CLEAR     -3  -8  81 W8        30.45R WCI -18
AITKIN         CLEAR      0  -8  71 NW5       30.42R WCI -10
PINE RIVER     CLEAR     -4  -8  84 NW5       30.46R WCI -15
BRAINERD       CLEAR     -1  -9  68 N13       30.44R WCI -19
STAPLES        CLEAR     -8 -11  84 NW7       30.45R WCI -22
LONG PRAIRIE   FAIR      -2  -8  78 NW7       30.45R WCI -16
LITTLE FALLS   CLEAR      1  -8  66 NW6       30.45R WCI -10
LITCHFIELD     CLEAR      3  -2  78 NW13      30.44R WCI -14
BUFFALO        CLEAR      6  -4  62 NW9       30.44R WCI  -8
MAPLE LAKE     CLEAR      6  -2  67 NW10      30.44R WCI  -8
$$
MNZ037-044-045-052-053-270700-
   East Central Minnesota

CITY           SKY/WX    TMP DP  RH WIND       PRES   REMARKS
PRINCETON      CLEAR      7  -2  66 NW7       30.42R WCI  -5
MORA           CLEAR      5  -4  66 N7        30.43R WCI  -7
CAMBRIDGE      CLEAR      9  -2  61 NW7       30.41R WCI  -3
RUSH CITY      PTCLDY     6  -3  68 N7        30.42R WCI  -6
MOOSE LAKE     CLEAR      1  -6  71 N7        30.40R WCI -11
HINCKLEY       FAIR       5  -2  72 CALM      30.41R
CLOQUET        CLEAR      0  -8  71 NW9       30.37R WCI -16
MCGREGOR       CLEAR      0  -6  78 NW8       30.42R WCI -15
$$
MNZ071>073-080-081-089-090-097-098-270700-
   Southwest Minnesota

CITY           SKY/WX    TMP DP  RH WIND       PRES   REMARKS
MONTEVIDEO     CLEAR     -2  -8  78 N9        30.52R WCI -18
GRANITE FALLS  CLEAR     -2  -7  80 NW13      30.51R WCI -20
CANBY          CLEAR     -2  -6  82 NW10      30.52R WCI -19
MARSHALL       CLEAR      0  -9  65 NW14      30.47R WCI -19
REDWOOD FALLS  CLEAR      0  -6  76 NW15      30.47R WCI -19
OLIVIA         CLEAR      1  -4  78 NW12      30.46R WCI -15
PIPESTONE      CLEAR      1  -8  66 N5        30.42S WCI  -8
WINDOM         CLEAR      0  -6  78 NW17      30.43R WCI -21
WORTHINGTON    CLEAR      1  -6  71 N16       30.42R WCI -18
JACKSON        CLEAR      5  -4  66 NW17      30.41R WCI -14
TRACY          CLEAR      0  -6  77 NW14G20   30.47R WCI -19
SLAYTON        CLEAR     -1  -7  75 NW12G18   30.44R WCI -18
$$
MNZ065>067-074>077-082>085-091>093-270700-
   South Central Minnesota

CITY           SKY/WX    TMP DP  RH WIND       PRES   REMARKS
MANKATO        CLEAR      9   0  66 NW13      30.40R WCI  -7
NEW ULM        CLEAR      1  -4  78 NW15      30.44R WCI -18
ST JAMES       PTCLDY     3  -2  78 W15G23    30.45R WCI -15
FAIRMONT       CLOUDY     7   0  72 NW16G22   30.40R WCI -11
GLENCOE        CLEAR      9  -1  64 NW9       30.42R WCI  -5
FARIBAULT      FLURRIES  14   9  79 NW10G16   30.37R WCI   1
OWATONNA       FLURRIES  14   9  79 NW12      30.35R WCI   0
WASECA         CLOUDY    12   5  73 NW13      30.38R WCI  -3
ALBERT LEA     CLOUDY    12  10  92 NW9       30.34R WCI   0
$$
MNZ078>079-086>088-094>096-270700-
   Southeast Minnesota

CITY           SKY/WX    TMP DP  RH WIND       PRES   REMARKS
ROCHESTER      CLOUDY    19  14  81 NW16      30.30R WCI   4
6HR MIN TEMP:  19; 6HR MAX TEMP:  24; 6HR PCP: TRACE;

RED WING       FLURRIES  18   9  68 N7        30.36R WCI   8
STANTON        CLOUDY    17  11  76 N14       30.36R WCI   3
DODGE CENTER   FLURRIES  18  14  86 NW14      30.32R WCI   4
WINONA         CLOUDY    25  19  80 NW12G18   30.33R WCI  14
AUSTIN         CLOUDY    14  10  85 NW13      30.33R WCI   0
PRESTON        LGT SNOW  20  17  88 NW7       30.29R WCI  11
$$
ABBREVIATIONS USED IN REMARKS
   TC - TEMPERATURES IN CELSIUS
  WCI - WIND CHILL INDEX
   HX - HEAT INDEX
  VSB - VISIBILITY
$$


USA.gov is the U.S. government's official web portal to all federal, state and local government web resources and services.